This demonstration page uses our WeatherBlox Daily Observations layout. Learn more.

Left ArrowRight Arrow

38.83388, -104.82136

Hourly Observations for January 9, 2021

Temp ( °F °C ) Dew Point ( °F °C ) Humidity (%) Winds ( mph kmh ) Pressure ( in mb ) Visibility ( mi km ) Precip ( " mm )
12:01 am 00:01 Mostly Cloudy 25 -4 19 -7 80 80 SSE 8 13 29.88 1012 10 16 0.00 0.00
12:56 am 00:56 Mostly Cloudy 24 -4.6 19 -7.2 82 82 SSE 13 20 29.89 1012 10 16 0.00 0.00
1:41 am 01:41 Mostly Cloudy 25 -4 19 -7 80 80 S 8 13 29.88 1012 10 16 0.00 0.00
1:56 am 01:56 Mostly Cloudy 24 -4.4 20 -6.8 84 84 SSE 13 20 29.88 1012 10 16 0.00 0.00
2:46 am 02:46 Cloudy 23 -5 21 -6 93 93 Calm 29.92 1013 10 16 0.00 0.00
2:56 am 02:56 Cloudy 24 -4.7 20 -6.5 87 87 Calm 29.92 1013 10 16 0.00 0.00
3:56 am 03:56 Cloudy 23 -4.8 20 -6.5 88 88 Calm 29.92 1013 10 16 0.00 0.00
4:26 am 04:26 Mostly Cloudy 23 -5 19 -7 86 86 Calm 29.93 1013 10 16 0.00 0.00
4:36 am 04:36 Mostly Cloudy 23 -5 19 -7 86 86 Calm 29.93 1013 10 16 0.00 0.00
4:56 am 04:56 Mostly Cloudy 23 -5 20 -6.6 89 89 SSE 7 11 29.92 1013 10 16 0.00 0.00
6:56 am 06:56 Cloudy 23 -5.2 20 -6.7 89 89 SSE 9 15 29.93 1013 10 16 0.00 0.00
7:06 am 07:06 Cloudy 23 -5 19 -7 86 86 SSE 7 11 29.93 1013 10 16 0.00 0.00
7:11 am 07:11 Cloudy 23 -5 19 -7 86 86 SSE 7 11 29.93 1013 10 16 0.00 0.00
7:41 am 07:41 Mostly Cloudy 23 -5 19 -7 86 86 S 6 9 29.94 1014 10 16 0.00 0.00
7:51 am 07:51 Mostly Cloudy 23 -5 21 -6 93 93 SE 6 9 29.95 1014 10 16 0.00 0.00
7:56 am 07:56 Mostly Cloudy 22 -5.4 20 -6.4 93 93 SE 5 7 29.95 1014 10 16 0.00 0.00
8:56 am 08:56 Cloudy 23 -4.9 21 -6.2 91 91 Calm 29.97 1015 10 16 0.00 0.00
9:01 am 09:01 Cloudy 23 -5 21 -6 93 93 Calm 29.98 1015 10 16 0.00 0.00
9:11 am 09:11 Cloudy 23 -5 21 -6 93 93 E 3 6 29.97 1015 10 16 0.00 0.00
9:26 am 09:26 Cloudy 23 -5 21 -6 93 93 Calm 29.98 1015 10 16 0.00 0.00
9:56 am 09:56 Cloudy 23 -5.2 21 -6.3 92 92 SE 3 6 29.98 1015 8 13 0.00 0.00
10:56 am 10:56 Cloudy with Mist and Fog 23 -5.2 21 -6.1 93 93 SSE 3 6 30.01 1016 5 8 0.00 0.00
11:21 am 11:21 Cloudy with Mist and Fog 23 -5 21 -6 93 93 ESE 3 6 30.01 1016 5 8 0.00 0.00
11:56 am 11:56 Cloudy with Mist and Fog 22 -5.4 22 -5.8 97 97 Calm 29.99 1016 5 8 0.02 0.51
12:06 pm 12:06 Cloudy with Mist and Fog 23 -5 23 -5 100 100 Calm 29.99 1016 2 4 0.00 0.00
12:11 pm 12:11 Cloudy with Mist and Fog 23 -5 23 -5 100 100 S 3 6 29.99 1016 3 4 0.00 0.00
12:56 pm 12:56 Cloudy with Mist and Fog 23 -4.8 21 -6.2 90 90 SSE 6 9 29.97 1015 2 4 0.01 0.25
1:56 pm 13:56 Cloudy with Mist and Fog 24 -4.6 21 -5.9 91 91 ESE 5 7 29.97 1015 2 3 0.01 0.25
2:26 pm 14:26 Cloudy with Mist and Fog 23 -5 21 -6 93 93 Calm 29.97 1015 3 4 0.00 0.00
2:56 pm 14:56 Cloudy with Mist and Fog 23 -5.1 21 -5.9 94 94 Calm 29.98 1015 2 4 0.01 0.25
3:01 pm 15:01 Cloudy with Mist and Fog 23 -5 21 -6 93 93 Calm 29.98 1015 2 3 0.00 0.00
3:21 pm 15:21 Cloudy with Mist and Fog 23 -5 21 -6 93 93 SE 3 6 29.98 1015 2 2 0.00 0.00
3:31 pm 15:31 Cloudy with Mist and Fog 23 -5 23 -5 100 100 ESE 5 7 29.99 1016 2 3 0.00 0.00
3:46 pm 15:46 Mostly Cloudy with Mist and Fog 23 -5 23 -5 100 100 SE 3 6 29.99 1016 5 8 0.00 0.00
3:56 pm 15:56 Mostly Cloudy with Freezing Fog 22 -5.4 22 -5.4 100 100 SSE 6 9 30.00 1016 1 2 0.02 0.51
4:41 pm 16:41 Mostly Cloudy with Mist and Fog 21 -6 21 -6 100 100 SSE 5 7 30.01 1016 1 2 0.00 0.00
4:46 pm 16:46 Cloudy with Mist and Fog 21 -6 21 -6 100 100 SSE 3 6 30.01 1016 3 5 0.00 0.00
4:56 pm 16:56 Cloudy with Mist and Fog 22 -5.5 22 -5.5 100 100 SE 3 6 30.01 1016 1 2 0.01 0.25
5:26 pm 17:26 Mostly Cloudy with Mist and Fog 23 -5 23 -5 100 100 Calm 30.03 1017 1 1 0.00 0.00
5:31 pm 17:31 Mostly Cloudy with Freezing Fog 23 -5 23 -5 100 100 SE 3 6 30.03 1017 0 0 0.00 0.00
5:56 pm 17:56 Mostly Cloudy with Freezing Fog 22 -5.5 22 -5.6 99 99 SSE 3 6 30.04 1017 1 1 0.00 0.00
6:11 pm 18:11 Mostly Cloudy with Mist and Fog 21 -6 21 -6 100 100 SSE 5 7 30.05 1018 2 2 0.00 0.00
6:26 pm 18:26 Mostly Cloudy with Mist and Fog 21 -6 21 -6 100 100 Calm 30.06 1018 1 1 0.00 0.00
6:56 pm 18:56 Cloudy with Mist and Fog 22 -5.6 22 -5.5 100 100 Calm 30.07 1018 7 11 0.01 0.25
7:11 pm 19:11 Cloudy with Mist and Fog 23 -5 21 -6 93 93 Calm 30.07 1018 5 8 0.00 0.00
7:46 pm 19:46 Cloudy with Mist and Fog 21 -6 21 -6 100 100 Calm 30.09 1019 2 2 0.00 0.00
7:56 pm 19:56 Cloudy with Mist and Fog 22 -5.5 22 -5.6 99 99 Calm 30.08 1019 1 2 0.02 0.51
8:56 pm 20:56 Cloudy with Mist and Fog 22 -5.5 22 -5.8 98 98 Calm 30.08 1019 7 11 0.01 0.25
9:11 pm 21:11 Cloudy with Mist and Fog 23 -5 21 -6 93 93 Calm 30.08 1019 3 5 0.00 0.00
9:56 pm 21:56 Cloudy with Mist and Fog 22 -5.7 21 -6.2 96 96 Calm 30.11 1020 3 5 0.01 0.25
10:56 pm 22:56 Cloudy with Mist and Fog 22 -5.8 21 -6 99 99 Calm 30.11 1020 3 5 0.00 0.00
11:01 pm 23:01 Cloudy with Mist and Fog 21 -6 21 -6 100 100 Calm 30.11 1020 3 5 0.00 0.00
11:16 pm 23:16 Cloudy with Mist and Fog 21 -6 21 -6 100 100 Calm 30.11 1020 2 4 0.00 0.00
11:41 pm 23:41 Cloudy with Mist and Fog 21 -6 21 -6 100 100 Calm 30.11 1020 4 6 0.00 0.00
11:56 pm 23:56 Cloudy with Mist and Fog 21 -6 21 -5.9 100 100 Calm 30.11 1020 2 4 0.01 0.25

Powered by AerisWeather